Regional Weather Roundup
Issued by NWS Newport/Morehead, NC

Current Version | Previous Version | Graphics & Text | Print | Product List | Glossary Off
Versions: 1 2 3 4 5 6 7 8 9 10 11 12 13 14 15 16 17 18 19 20 21 22 23 24 25 26 27 28 29 30 31 32 33 34 35 36 37 38 39 40 41 42 43 44 45 46 47 48 49 50

000
ASUS42 KMHX 131113
RWRMHX
WEATHER ROUNDUP FOR EASTERN NORTH CAROLINA
NATIONAL WEATHER SERVICE NEWPORT/MOREHEAD CITY NC
600 AM EST WED DEC 13 2017

NOTE: "FAIR" INDICATES FEW OR NO CLOUDS BELOW 12,000 FEET
WITH NO SIGNIFICANT WEATHER AND/OR OBSTRUCTIONS TO VISIBILITY

NCZ015>017-031-032-045>047-102-103-131200-
NORTH COAST

CITY           SKY/WX    TMP DP  RH WIND       PRES   REMARKS
EDENTON        CLEAR     31  13  48 W10G18    29.90R
ELIZABETH CITY CLEAR     24  11  57 W7        29.88R
KITTY HAWK     SUNNY     28   7  40 NW10G18   29.85R WCI  19
MANTEO         CLEAR     29   8  40 NW12G22   29.87R WCI  19

$$

NCZ045>047-081-094-103-104-131200-
CENTRAL COAST

CITY           SKY/WX    TMP DP  RH WIND       PRES   REMARKS
FRISCO         CLEAR     32  13  45 NW17G32   29.89R

$$

NCZ095-097-098-100-101-131200-
SOUTHERN COAST

CITY           SKY/WX    TMP DP  RH WIND       PRES   REMARKS
BEAUFORT       CLEAR     31  15  52 NW20      29.93R WCI  19
CEDAR ISLAND   NOT AVBL
JACKSONVILLE   CLEAR     27  17  66 NW6       29.95R
PINEY ISLAND     N/A    N/A N/A N/A W16G24    29.92R
WILMINGTON     CLEAR     28  16  60 NW5       29.95R


$$

NCZ011>013-027>030-043-044-078>080-089-090>093-098-131200-
COASTAL PLAIN

CITY           SKY/WX    TMP DP  RH WIND       PRES   REMARKS
AHOSKIE        CLEAR     27   6  42 NW3       29.90R
CLINTON        CLEAR     29  16  58 W5        29.96R
ELIZABETHTOWN  NOT AVBL
GOLDSBORO      CLEAR     28  12  51 W8        29.93R
GREENVILLE     CLEAR     30  10  43 NW7       29.95R
HAVELOCK       CLEAR     29  13  51 NW13      29.95R WCI  19
KENANSVILLE    CLEAR     28  14  54 W3        29.95R
KINSTON        CLEAR     27  14  60 CALM      29.95R
NEW BERN       CLEAR     27  13  55 W6        29.95R
RICHLANDS      CLEAR     26  17  68 VRB3      29.95R
ROCKY MOUNT    CLEAR     27  11  51 W7        29.93R
WASHINGTON     CLEAR     28  10  47 W7        29.92R
WHITEVILLE     CLEAR     29  19  66 CALM      29.95S

$$

AMZ130-135-150-152-154-156-158-170-250-252-270-ANZ085-086-088-633-658-670-131200-
MARINE OBSERVATIONS

STATION/POSITION TIME  TEMP    WIND        PRES    WAVE   SWELL
                       AIR SEA DIR/SP/G            HT/PER HT/PER
                 (UTC) (F)     (DEG/KT/KT) (MB)    (FT/S) (FT/S)
CHESAPEAKE LIGHT NOT AVBL
64 E VA BEACH    1050   34 58  300/ 27/ 35 1008.1   11/ 8
DUCK             1036   29 54  300/ 17/ 22 1010.4
2 E DUCK         1100      56                N/A     5/ 7
OREGON INLET     1036   31 45  290/ 16/ 26 1010.9
13E OREGON INLT  1048      58                N/A     8/ 8   3/12
HATTERAS CG      1036   33 52  320/ 27/ 33 1011.4
DIAMOND BUOY     1100   37 74  310/ 27/ 37 1011.7
CAPE LOOKOUT     1100          330/ 24/ 28 1013.1
BEAUFORT LAB     1036   32 52  330/ 12/ 20 1013.2
30 SE NEW RVR IN 1008   39 63  340/ 19/ 29 1012.2
30 SE NEW RVR IN 1100      63                N/A     6/ 5
27 SE WRIGHTSVLE 1008   40 65  320/ 23/ 33 1012.8
5 SE WRIGHTSVLE  1008   36 57  330/ 14/ 21 1012.7
225 S CAPE HAT   1050   59 75  320/ 27/ 33 1008.8   14/11  10/11
41 SE CHARLESTON 1100   46 74  330/ 17/ 25 1014.2

$$




USA.gov is the U.S. government's official web portal to all federal, state and local government web resources and services.